COSMOS 2514 (751)

Last updated on Thu Nov 21 2024 00:03:12 GMT+0000 (Coordinated Universal Time)

1 41330U 16008A 24325.37948578 -.00000053 00000+0 00000+0 0 9990 2 41330 65.3369 332.6321 0012723 221.1034 138.8280 2.13102614 68399
UTC large
Height (km)
Speed (km/s)
/
Latitude / Longitude
Inclination (degrees)
Orbital Period (minutes)
Azimuth
Elevation
Range (km)
Doppler Factor

Next 0 passes for location: London (51.5072 / 0.1276)

Sorry there are no passes over London.